Location: Eexterzandvoort
(53.0303°N, 6.7884°E)
Time: 18:17:55
(UTC+00:00)

Daily predictions for brighter satellites

Satellite Brightness Start Highest point End
(mag) Time Altitude Azimuth Time Altitude Azimuth Time Altitude Azimuth
Cosmos 1743 2.5 20:13:12 10° NNW 20:16:39 80° W 20:20:03 10° S
NOSS 2-3 (C) 4.1 20:13:16 10° WSW 20:16:47 55° NW 20:20:54 10° NE
ISS -3.7 20:15:54 10° W 20:19:14 63° S 20:22:33 10° ESE
Lacrosse 4 Rocket 3.1 20:18:24 10° WSW 20:22:05 37° NW 20:25:52 10° NNE
CZ-4B R/B 4.4 20:18:56 10° SSW 20:22:37 33° W 20:26:12 10° NNW
Spot 2 Rocket 3.5 20:18:45 10° SSE 20:23:46 80° ENE 20:28:50 10° NNW
ARIANE 6 FM1 Upper Stage 2.9 20:20:15 10° SSW 20:24:04 44° SE 20:27:56 10° ENE
NOSS 3-1 (C) 3.8 20:20:15 10° S 20:24:25 30° ESE 20:29:17 10° ENE
Cosmos 2333 Rocket 4.4 20:21:29 10° NNW 20:25:25 18° NNE 20:29:20 10° ENE
Cosmos 1782 3.9 20:23:22 10° SSW 20:26:53 42° WNW 20:30:24 10° N
Meteor 1-5 Rocket 4.5 20:21:50 10° NNW 20:27:50 84° W 20:33:48 10° S
Cosmos 1726 Rocket 4.3 20:24:55 10° SSW 20:29:16 56° WNW 20:33:36 10° N
CZ-4 R/B 4.2 20:28:27 10° WSW 20:30:27 14° W 20:32:28 10° WNW
Cosmos 1833 Rocket 2.9 20:25:17 10° S 20:30:41 49° ESE 20:36:07 10° NE
Cosmos 1356 Rocket 4.4 20:29:04 10° SSE 20:32:39 29° E 20:36:14 10° NNE
Cosmos 1733 2.6 20:29:52 10° N 20:32:58 67° ENE 20:36:02 10° SSE
Cosmos 158 Rocket 4.0 20:34:20 10° SSW 20:39:35 69° ESE 20:44:57 10° NNE
Cosmos 2218 Rocket 4.2 20:33:26 10° N 20:39:46 61° ENE 20:46:00 10° SSE
USA 245 3.9 20:35:53 10° S 20:40:07 80° WSW 20:45:26 10° NNW
Cosmos 2058 Rocket 3.3 20:40:14 10° SSW 20:44:42 74° WNW 20:49:10 10° N
Helios 1A 3.6 20:43:01 10° N 20:47:00 58° WNW 20:50:57 10° SSW
Cosmos 1805 4.3 20:45:10 10° N 20:48:09 26° ENE 20:50:42 12° SE
Cosmos 1980 Rocket 2.3 20:46:46 10° NNW 20:52:23 70° NE 20:57:27 13° SE
PSLV R/B 3.3 20:49:41 11° SSE 20:52:42 84° WSW 20:56:00 10° NNW
Cosmos 1812 Rocket 4.0 20:48:57 11° SSE 20:52:53 41° E 20:56:58 10° NNE
NOSS 3-1 (A) 4.2 20:50:27 10° SSE 20:54:12 23° ESE 20:58:30 10° ENE
ATLAS CENTAUR R/B 1.0 20:52:15 10° SW 20:55:57 78° SE 20:59:48 10° NE
Terra 2.9 20:51:44 10° SSW 20:56:09 40° W 21:00:37 10° NNW
USA 234 3.3 20:50:03 10° ENE 20:56:30 59° SE 21:02:57 10° SW
Cosmos 1315 Rocket 3.5 20:55:12 13° SSE 20:58:17 35° E 21:01:51 10° NNE
Cosmos 2208 Rocket 4.4 20:56:14 10° S 21:01:22 47° ESE 21:06:28 10° NE
Meteor 1-26 Rocket 4.4 20:55:33 10° S 21:01:25 78° E 21:07:27 10° NNE
SL-16 R/B 3.6 20:58:13 10° NNW 21:03:13 31° NE 21:08:12 10° ESE
Cosmos 2181 Rocket 4.2 20:58:48 10° SSE 21:04:53 56° E 21:11:06 10° NNE
Meteor 2-2 Rocket 4.4 21:00:17 10° SSW 21:06:14 86° WNW 21:12:18 10° NNE
Meteor 1-11 Rocket 4.5 21:01:20 10° N 21:06:31 40° ENE 21:10:57 14° SE
BlueWalker 3 2.8 21:04:40 10° W 21:07:58 32° SSW 21:10:12 17° SSE
Cosmos 1125 Rocket 4.3 21:03:53 10° NW 21:08:57 47° WSW 21:14:00 10° S
Meteor 2-10 4.2 21:03:16 10° NNW 21:09:01 86° ENE 21:13:58 13° SSE
SL-24 R/B 4.4 21:04:51 10° NNE 21:09:02 48° E 21:12:50 13° S
Cosmos 1346 Rocket 4.1 21:07:10 10° NNW 21:10:31 32° W 21:13:50 10° SSW
Cosmos 2322 Rocket 4.0 21:07:19 10° NNW 21:12:00 25° NE 21:16:38 10° E
Cosmos 2366 rocket 4.2 21:08:40 10° NNW 21:15:03 79° W 21:21:09 11° S
SL-24 DEB 4.2 21:14:17 13° S 21:18:18 89° W 21:22:53 10° N
Meteor 1-14 Rocket 4.3 21:13:32 10° NNW 21:19:09 78° ENE 21:23:50 16° SSE
Cosmos 44 4.3 21:17:34 10° WNW 21:21:41 34° WSW 21:25:13 14° S
Ariane Rocket 3.5 21:16:59 11° S 21:21:48 57° W 21:26:49 10° NNW
SL-8 Rocket 4.3 21:17:31 10° NNW 21:23:37 63° W 21:29:39 10° S
Cosmos 2298 Rocket 4.1 21:18:26 10° NNW 21:23:46 76° WSW 21:27:57 17° SSE
Cosmos 1697 Rocket 3.6 21:19:07 10° NW 21:24:23 41° WSW 21:29:17 12° S
Lacrosse 5 rocket 2.8 21:22:24 10° W 21:24:53 18° SW 21:26:34 13° SSW
Cosmos 1238 Rocket 2.4 21:22:13 16° S 21:25:01 67° E 21:28:16 10° NNE
ARIANE 5 R/B 3.8 21:23:51 14° ESE 21:26:58 30° ENE 21:30:48 10° N
Cosmos 1570 Rocket 4.0 21:22:31 10° SSW 21:27:47 87° WNW 21:33:06 10° NNE
CENTAUR R/B 3.9 21:23:51 10° NW 21:31:08 50° NNE 21:39:47 10° E
Cosmos 2360 Rocket 3.8 21:27:01 10° NNW 21:31:48 28° NE 21:36:35 10° E
ATLAS 3B R/B 4.1 21:30:06 16° SE 21:33:51 23° ESE 21:39:38 10° ENE
Cosmos-2242 4.4 21:30:13 10° SW 21:34:11 36° WNW 21:38:09 10° N
Cosmos 836 Rocket 4.4 21:29:17 10° SSW 21:34:28 85° ESE 21:39:42 10° NNE
Cosmos 1536 2.6 21:31:15 10° N 21:35:06 87° ENE 21:37:32 21° SSE
Meteor 2-6 Rocket 4.3 21:30:19 11° S 21:36:00 79° E 21:41:43 10° NNE
Cosmos 2344 4.4 21:29:19 10° W 21:36:24 52° NNW 21:43:58 10° NE
Cosmos 2369 3.7 21:31:36 10° NNW 21:37:19 90° WNW 21:41:29 19° SSE
Cosmos 405 Rocket 3.3 21:36:40 10° N 21:39:56 38° ENE 21:41:39 22° SE
Cosmos 2150 Rocket 4.5 21:34:43 10° NNW 21:40:00 57° WSW 21:44:04 17° S
SeaSat 1 2.7 21:36:40 18° SSE 21:40:12 63° WSW 21:45:06 10° NW
Cosmos 2221 2.4 21:37:30 15° S 21:40:55 88° E 21:45:06 10° NNE
Okean O Rocket 4.5 21:40:45 10° W 21:41:24 10° W 21:42:04 10° WNW
Okean 1 3.1 21:42:37 16° SSW 21:45:27 81° W 21:49:08 10° N
Cosmos 2082 Rocket 2.5 21:42:05 15° S 21:46:25 48° ESE 21:51:49 10° NE
Cosmos 1674 1.3 21:48:35 51° SE 21:48:48 54° E 21:50:58 10° NNE
ISS -2.6 21:52:48 10° W 21:55:40 26° SSW 21:56:12 25° SSW
Okean 3 Rocket 4.0 21:52:18 10° N 21:56:37 51° ENE 21:59:09 23° SE
Cosmos 773 Rocket 4.0 21:51:57 10° SSW 21:57:06 87° WNW 22:02:15 10° NNE
COBE Rocket 4.0 21:52:13 10° NNE 21:57:19 68° E 22:00:55 20° S
Cosmos 2239 Rocket 4.5 21:52:04 10° N 21:58:20 88° WSW 22:02:47 20° S
Meteor 1-10 Rocket 4.4 21:54:20 18° S 21:58:44 68° E 22:04:32 10° NNE
Cosmos 1766 Rocket 3.6 21:55:06 10° NNW 21:59:32 78° W 22:02:12 23° S
Cosmos 220 Rocket 3.8 21:57:20 15° SSW 22:00:44 89° ESE 22:04:49 10° NNE
Cosmos 2084 Rocket 3.4 21:56:31 10° SW 22:00:47 87° NW 22:05:02 10° NE
COSMOS 2406 3.7 21:59:10 21° S 22:02:34 42° ESE 22:07:55 10° NE
ARIANE 6 FM1 Upper Stage 3.9 21:59:24 10° W 22:03:15 43° NNW 22:07:10 10° NE
USA 59 Rocket 0.2 22:10:23 28° ESE 22:10:23 28° ESE 22:12:47 10° ENE
Cosmos 2333 Rocket 2.9 22:05:34 10° NNW 22:11:09 49° NE 22:15:53 14° ESE
MetOp-A 4.0 22:10:43 24° SSE 22:13:55 85° ENE 22:19:08 10° NNW
NOSS 3-1 (C) 3.5 22:09:35 10° WSW 22:14:35 67° NW 22:20:49 10° NE
Cosmos 1833 Rocket 4.0 22:09:26 10° WSW 22:14:45 40° NW 22:20:05 10° NNE
Cosmos 1151 Rocket 4.5 22:19:28 19° ESE 22:21:05 23° E 22:24:28 10° NE
NOSS 2-1 (E) 3.6 22:21:20 31° SE 22:21:20 31° SE 22:24:00 10° ENE
ALOS 2 3.1 22:19:44 23° SE 22:22:12 52° ENE 22:26:28 10° N
PKM 3.5 22:19:40 10° WSW 22:22:27 80° SSE 22:27:15 10° ENE
Cosmos 2219 Rocket 3.5 22:21:44 10° NNW 22:26:54 35° NE 22:32:02 10° ESE
Meteor 1-19 Rocket 4.4 22:25:46 18° SSW 22:30:21 84° WNW 22:36:24 10° NNE
ATLAS CENTAUR R/B 3.6 22:29:16 10° W 22:32:29 25° NNW 22:35:47 10° NNE
Meteor 2-4 Rocket 4.1 22:30:51 25° SSE 22:34:01 51° E 22:39:40 10° NNE
Meteor 1-27 Rocket 3.6 22:30:55 23° S 22:34:31 81° E 22:40:04 10° NNE
Cosmos 1980 Rocket 3.6 22:31:23 10° NW 22:35:54 26° WSW 22:39:12 15° SSW
Sich 1 3.0 22:32:11 10° N 22:36:27 73° ENE 22:38:23 31° SSE
NOSS 2-1 (D) 2.9 22:36:14 43° SSE 22:36:44 49° SE 22:39:40 10° NE
USA 234 3.5 22:33:11 10° ENE 22:39:43 76° NNW 22:46:15 10° W
Genesis I 2.3 22:37:32 10° NW 22:40:15 56° SW 22:40:24 55° SSW
Meteor 2-15 4.5 22:37:23 10° NNW 22:43:30 75° W 22:47:14 25° S
NOSS 3-1 (A) 3.2 22:39:08 10° SW 22:44:07 81° NW 22:50:21 10° NE
PSLV R/B 4.4 22:41:35 10° NNE 22:45:26 34° E 22:46:52 27° SE
Cosmos 2056 Rocket 4.5 22:41:38 10° NNW 22:46:45 43° NE 22:50:55 14° ESE
SL-16 R/B 2.2 22:42:11 10° NW 22:47:51 73° WSW 22:51:04 27° SSE
Cosmos 1975 3.1 22:45:14 10° NNW 22:48:50 50° W 22:50:13 31° SSW
Cosmos 1500 Rocket 3.5 22:47:10 10° N 22:51:33 86° ENE 22:53:33 32° SSE
CZ-4C R/B 4.2 22:48:19 10° N 22:51:47 39° WNW 22:54:01 18° SW
Cosmos 1707 2.5 22:51:13 42° SSE 22:52:03 58° E 22:55:22 10° NNE
Cosmos 1538 Rocket 4.0 22:50:41 27° S 22:53:24 64° ESE 22:58:31 10° NNE
NOSS 2-1 (C) 2.5 22:55:39 40° SSW 22:56:38 74° SE 22:59:37 10° NE
Cosmos 2322 Rocket 2.2 22:51:08 10° NNW 22:56:51 86° ENE 23:00:24 24° SSE
Cosmos 1633 Rocket 4.4 22:54:19 10° N 22:58:12 30° ENE 23:00:47 17° ESE
Spot 4 4.0 22:56:44 29° S 22:59:05 62° WSW 23:03:50 10° NNW
Meteor 2-15 Rocket 4.5 22:54:17 10° NNW 23:00:24 76° W 23:04:01 26° S
Cosmos 1408 Rocket 3.6 22:56:07 10° NNW 23:00:26 67° W 23:02:20 32° S
COSMOS 2428 4.4 22:56:54 10° NNW 23:01:57 31° NE 23:07:00 10° ESE
ARIANE 5 R/B 3.4 23:01:14 25° SSW 23:03:12 39° W 23:07:19 10° NNW
Cosmos 1766 4.1 23:01:04 10° NNW 23:04:12 33° W 23:05:17 27° SW
Cosmos 1842 Rocket 4.2 23:02:48 21° SW 23:05:23 48° WNW 23:09:34 10° N
Cosmos 1908 3.3 23:02:29 10° NNW 23:05:38 47° W 23:06:26 37° SW
Cosmos 1470 2.5 23:02:41 10° NNW 23:06:14 69° W 23:07:19 41° SSW
Meteor 2-10 Rocket 4.5 23:01:33 10° N 23:07:05 46° ENE 23:11:09 18° SE
Cosmos 1805 Rocket 3.6 23:03:12 10° NNW 23:07:39 72° W 23:09:35 33° S
Cosmos 1066 Rocket 4.4 23:04:56 27° SSE 23:07:56 60° E 23:13:37 10° NNE
Cosmos 405 Rocket 4.4 23:11:24 10° NW 23:13:49 18° W 23:14:58 16° WSW
Cosmos 2278 4.1 23:08:29 10° NW 23:13:55 49° WSW 23:16:39 27° S
GP-B 3.3 23:10:15 10° N 23:14:37 62° E 23:16:31 32° SSE
Exosat Rocket 3.7 23:10:56 10° NW 23:15:58 60° WSW 23:18:24 29° S
Cosmos 2360 Rocket 2.1 23:10:47 10° NNW 23:16:28 83° WSW 23:19:47 26° SSE
Cosmos 2173 Rocket 4.5 23:11:10 10° N 23:17:25 55° ENE 23:21:47 20° SE
Meteor 1-18 Rocket 4.3 23:14:33 27° S 23:17:48 75° E 23:23:42 10° NNE
CENTAUR R/B 3.2 23:14:32 10° NW 23:22:35 82° SW 23:31:24 12° SE
Spot 1 4.0 23:19:11 10° NNE 23:23:28 88° W 23:25:33 31° SSW
ATLAS 3B R/B 2.9 23:17:16 16° SW 23:23:31 77° SE 23:31:24 10° NE
ASTEX 1 3.6 23:18:44 10° N 23:23:40 64° E 23:26:06 29° SSE
KORONAS-FOTON 4.3 23:22:29 30° SW 23:23:50 46° WNW 23:27:14 10° N
USA 229 DEB 3.6 23:20:46 25° SSW 23:24:20 58° SE 23:31:00 10° NE
USA 229 3.6 23:20:54 25° SSW 23:24:25 57° SE 23:31:04 10° NE
Cosmos 1743 Rocket 3.7 23:21:28 10° NNW 23:25:53 64° W 23:27:46 33° SSW
GEOS 3 Rocket 4.1 23:22:54 10° ESE 23:27:56 61° NE 23:33:01 10° NW
Cosmos 2082 Rocket 3.3 23:25:20 10° WSW 23:30:37 41° NW 23:35:57 10° NNE
Cosmos 1605 Rocket 4.4 23:25:29 10° NNW 23:31:38 54° W 23:35:18 24° SSW
Cosmos 1842 3.8 23:36:29 28° WSW 23:37:47 41° WNW 23:41:07 10° N
Cosmos 1420 Rocket 4.1 23:35:35 10° NNW 23:40:50 62° WSW 23:43:26 29° S
Cosmos 2112 Rocket 4.4 23:41:11 28° SSE 23:43:38 49° ESE 23:48:41 10° NE
USA-17 4.3 23:40:50 10° NW 23:43:51 51° SW 23:44:07 49° SSW
Cosmos 1455 2.1 23:43:43 10° N 23:46:29 47° ENE 23:47:02 39° ESE
COSMOS 2406 4.1 23:41:23 10° WSW 23:46:52 46° NW 23:52:22 10° NNE
Cosmos 2237 Rocket 4.1 23:42:19 10° NNW 23:47:14 29° NE 23:52:08 10° E
Cosmos 1300 2.6 23:46:50 10° NNW 23:49:54 47° W 23:50:26 41° SW
SL-14 R/B 3.9 23:53:45 29° SE 23:55:12 43° E 23:58:54 10° NNE
